Regional Weather Roundup
Issued by NWS

Home | Current Version | Previous Version | Graphics & Text | Print | Product List | Glossary On
Versions: 1 2 3 4 5 6 7 8 9 10 11 12 13 14 15 16 17 18 19 20 21 22 23 24 25 26 27 28 29 30 31 32 33 34 35 36 37 38 39 40 41 42 43 44 45 46 47 48 49 50
000
ASUS43 KLOT 240503
RWRIL

ILLINOIS REGIONAL WEATHER ROUNDUP
NATIONAL WEATHER SERVICE CHICAGO/ROMEOVILLE IL
1200 AM CDT THU AUG 24 2017

NOTE: "FAIR" INDICATES FEW OR NO CLOUDS BELOW 12,000 FEET WITH NO
SIGNIFICANT WEATHER AND/OR OBSTRUCTIONS TO VISIBILITY.

* THESE STATIONS ARE NOT UNDER NWS QUALITY CONTROL. THEY ALSO MAY NOT
  REPORT WEATHER SUCH AS PRECIPITATION OR FOG.

ILZ001-002-007-009-015-016-024-240600-
NORTHWEST ILLINOIS

CITY           SKY/WX    TMP DP  RH WIND       PRES   REMARKS
MOLINE         CLEAR     59  54  83 CALM      30.05R
SAVANNA*       PTCLDY    56  55  97 CALM      30.06R
$$

ILZ003-004-008-010-011-017-018-240600-
NORTH CENTRAL ILLINOIS

CITY           SKY/WX    TMP DP  RH WIND       PRES   REMARKS
ROCKFORD       CLEAR     57  55  93 CALM      30.06R
FREEPORT*      PTCLDY    53  52  95 CALM      30.07S
ROCHELLE*      PTCLDY    53  52  97 CALM      30.06R
DE KALB*       CLEAR     60  54  80 CALM      30.06R
PERU*          CLEAR     58  54  87 W3        30.06R
$$

ILZ005-006-012>014-019>023-240600-
NORTHEAST ILLINOIS

CITY           SKY/WX    TMP DP  RH WIND       PRES   REMARKS
CHICAGO-OHARE  PTCLDY    65  55  70 SW5       30.03S
CHICAGO-MIDWAY PTCLDY    67  56  67 CALM      30.03S
AURORA         CLEAR     57  55  93 CALM      30.05R
LANSING*       CLEAR     57  56  99 CALM      30.04S
JOLIET*        PTCLDY    60  58  96 CALM      30.05R
WAUKEGAN       CLEAR     57  56  96 CALM      30.03S
DUPAGE AIRPORT CLEAR     58  55  90 CALM      30.04R
KANKAKEE*      CLEAR     59  55  88 CALM      30.05S
WHEELING       CLEAR     61  58  90 CALM      30.05S
MORRIS*        CLEAR     57  55  92 CALM      30.03S
ROMEOVILLE*    MOCLDY    61  56  85 CALM      30.04S
NORTHERLY ISL    N/A     66  55  67 S6          N/A
$$

LMZ740>746-240600-
SOUTHERN LAKE MICHIGAN

STATION/POSITION SKY/WX   TEMP    WIND        PRES    VSBY  WAVE
                          AIR SEA DIR/SP/G                  HT/PER
                          (F)     (DEG/KT/KT) (MB)    (MI)  (FT/S)
SOUTHERN BUOY              67 71  170/  2/  4 1017.0          2/ 5
WILMETTE HARBOR            69 73  210/  6/  8   N/A           1/ 5
HARRISON CRIB              69     170/  6/  7   N/A
CALUMET HARBOR             66     180/  3/  4 1016.3F
BURNS HARBOR               64     190/  3/  5 1017.6S
MICHIGAN CITY              62     140/  4/  5   N/A
MICHIGAN CITY 6N           67 73  140/  6/  8   N/A           2/ 5
ST. JOSEPH                 67 75  120/  4/  8 1017.0R         2/ 5
$$

ILZ025>027-034>036-040-047-049-050-058-095>099-240600-
WEST-CENTRAL ILLINOIS

CITY           SKY/WX    TMP DP  RH WIND       PRES   REMARKS
QUINCY         CLEAR     65  53  65 CALM      30.06S
GALESBURG*     CLEAR     54  54 100 CALM      30.07R
MACOMB*        CLEAR     55  55  97 CALM      30.08S
JACKSONVILLE*  CLEAR     58  56  93 CALM      30.07R
$$

ILZ028>032-037-038-041>044-048-051>054-059>061-240600-
CENTRAL ILLINOIS

CITY           SKY/WX    TMP DP  RH WIND       PRES   REMARKS
PONTIAC        CLEAR     58  57  98 CALM      30.05S
DECATUR        CLEAR     60  54  80 CALM      30.05S
PEORIA         CLEAR     60  56  86 CALM      30.05S
LACON*         CLEAR     57  56  97 CALM      30.05R
LINCOLN*       CLEAR     59  58  95 CALM      30.05S
SPRINGFIELD    CLEAR     58  56  93 CALM      30.06S
TAYLORVILLE    CLEAR     57  56  97 CALM      30.06R
$$

ILZ033-039-045-046-055>057-062-063-240600-
EAST-CENTRAL ILLINOIS

CITY           SKY/WX    TMP DP  RH WIND       PRES   REMARKS
CHAMPAIGN      CLEAR     56  53  90 W3        30.05S
RANTOUL*       CLEAR     61  58  90 NW3       30.05R
MATTOON        CLEAR     61  56  83 W3        30.04S
PARIS*         PTCLDY    52  51  97 CALM      30.05S
$$

ILZ079-100>102-240600-
SOUTHWEST ILLINOIS

CITY           SKY/WX    TMP DP  RH WIND       PRES   REMARKS
ALTON          CLEAR     57  57 100 CALM      30.06S
BELLEVILLE     CLEAR     62  58  88 CALM      30.07S
CAHOKIA*       CLEAR     61  57  87 CALM      30.06S
SPARTA*        CLEAR     61  55  81 CALM      30.06S
$$

ILZ064>066-069>071-074>076-080>082-084>086-088>090-092>094-240600-
SOUTH-CENTRAL ILLINOIS

CITY           SKY/WX    TMP DP  RH WIND       PRES   REMARKS
CARBONDALE     CLEAR     59  58  96 CALM      30.05S
CAIRO*         CLEAR     59  56  89 CALM      30.04S
EFFINGHAM*     CLEAR     58  58 100 CALM      30.07R
MARION         CLEAR     61  61 100 CALM      30.06R
MT. VERNON       N/A     57  56  96 CALM      30.06R
CENTRALIA*     CLEAR     59  58  97 CALM      30.05S
SALEM*         CLEAR     57  55  91 CALM      30.06R
METROPOLIS*    CLEAR     59  57  94 CALM      30.05R
$$

ILZ067-068-072-073-078-083-087-091-240600-
SOUTHEAST ILLINOIS

CITY           SKY/WX    TMP DP  RH WIND       PRES   REMARKS
LAWRENCEVILLE  CLEAR     61  60  97 CALM      30.04S
FLORA*         CLEAR     62  57  83 NW5       30.05S
FAIRFIELD*     CLEAR     59  58  98 CALM      30.05R
HARRISBURG*    CLEAR     60  57  90 CALM      30.05R
ROBINSON*      CLEAR     54  54 100 CALM      30.06R
CARMI*         CLEAR     57  57  99 CALM      30.04R
$$

ABBREVIATIONS USED IN REMARKS
   TC - TEMPERATURE IN CELSIUS
  WCI - WIND CHILL INDEX
   HX - HEAT INDEX
  VSB - VISIBILITY
$$




USA.gov is the U.S. government's official web portal to all federal, state and local government web resources and services.